User: anonymous   Login
Location: Unspecified
(0.0000°N, 0.0000°E)
Time: 07:23:27
(UTC+00:00)
Language:

N. Korean satellite - Orbit

View from above orbital plane
View from above orbital plane
View from above satellite
View from above satellite

Ground track
Ground track

The orbit data is extracted from the following two-line orbital elements,

1 39026U 12072A   17083.64331847 +.00002791 +00000-0 +11159-3 0  9996
2 39026 097.2293 104.3734 0042693 115.4084 245.1583 15.25069557237042
Epoch (UTC): 24 March 2017 15:26:22
Eccentricity: 0.0042693
inclination: 97.2293°
perigee height: 461 km
apogee height: 520 km
right ascension of ascending node: 104.3734°
argument of perigee: 115.4084°
revolutions per day: 15.25069557
mean anomaly at epoch: 245.1583°
orbit number at epoch: 23704

The dashed part of the orbit path shows where the satellite is in the earth's shadow,  

DLR